Location: ??
(35.4032°N, 139.3073°E)
Time: 12:48:36
(UTC+00:00)

Cosmos 1515 Rocket - Pass Details

Date: 13 April 2024
Orbit: 602 x 627 km, 82.5° (Epoch: 21 May)

Event Time Altitude Azimuth Distance (km) Brightness Sun altitude
Exits shadow 18:43:43 - 176° (S) 2,504 6.5 -17.8°
Reaches altitude 10° 18:44:59 10° 174° (S) 1,995 6.0 -17.5°
Maximum altitude 18:49:21 61° 94° (E) 711 4.1 -16.7°
Drops below altitude 10° 18:53:45 10° 14° (NNE) 2,009 6.7 -15.9°
Sets 18:56:00 0° 11° (NNE) 2,919 7.5 -15.5°
